TimeCDT,TemperatureF,Dew PointF,Humidity,Sea Level PressureIn,VisibilityMPH,Wind Direction,Wind SpeedMPH,Gust SpeedMPH,PrecipitationIn,Events,Conditions,WindDirDegrees,DateUTC
12:53 AM,52.0,44.1,74,30.13,10.0,North,6.9,-,N/A,,Scattered Clouds,350,2012-05-07 05:53:00
1:53 AM,53.1,44.1,71,30.14,10.0,NNW,9.2,-,N/A,,Scattered Clouds,330,2012-05-07 06:53:00
2:53 AM,53.1,44.1,71,30.12,10.0,NNW,10.4,-,N/A,,Clear,330,2012-05-07 07:53:00
3:53 AM,52.0,44.1,74,30.13,10.0,NNW,6.9,-,N/A,,Clear,340,2012-05-07 08:53:00
4:53 AM,53.1,42.1,66,30.14,10.0,NNW,13.8,-,N/A,,Partly Cloudy,340,2012-05-07 09:53:00
5:53 AM,52.0,39.9,63,30.16,10.0,North,13.8,-,N/A,,Mostly Cloudy,10,2012-05-07 10:53:00
6:53 AM,52.0,39.0,61,30.18,10.0,North,12.7,-,N/A,,Mostly Cloudy,360,2012-05-07 11:53:00
7:53 AM,53.1,39.0,59,30.19,10.0,North,10.4,-,N/A,,Partly Cloudy,360,2012-05-07 12:53:00
8:53 AM,57.0,36.0,45,30.18,10.0,North,15.0,21.9,N/A,,Clear,350,2012-05-07 13:53:00
9:53 AM,61.0,34.0,36,30.17,10.0,NNW,23.0,26.5,N/A,,Partly Cloudy,340,2012-05-07 14:53:00
10:53 AM,64.0,32.0,30,30.17,10.0,North,21.9,28.8,N/A,,Clear,360,2012-05-07 15:53:00
11:53 AM,66.0,32.0,28,30.18,10.0,NNW,17.3,26.5,N/A,,Partly Cloudy,330,2012-05-07 16:53:00
12:53 PM,66.0,32.0,28,30.19,10.0,NW,19.6,24.2,N/A,,Scattered Clouds,320,2012-05-07 17:53:00
1:53 PM,66.0,32.0,28,30.19,10.0,NNW,15.0,23.0,N/A,,Clear,330,2012-05-07 18:53:00
2:53 PM,64.0,32.0,30,30.17,10.0,WNW,19.6,24.2,N/A,,Mostly Cloudy,300,2012-05-07 19:53:00
3:53 PM,64.0,32.0,30,30.15,10.0,WNW,12.7,-,N/A,,Partly Cloudy,300,2012-05-07 20:53:00
4:53 PM,64.0,33.1,31,30.12,10.0,WNW,9.2,-,N/A,,Clear,300,2012-05-07 21:53:00
5:53 PM,68.0,34.0,28,30.10,10.0,NW,9.2,-,N/A,,Clear,310,2012-05-07 22:53:00
6:53 PM,68.0,28.0,22,30.08,10.0,NW,15.0,-,N/A,,Clear,310,2012-05-07 23:53:00
7:53 PM,64.0,30.0,28,30.07,10.0,NNW,8.1,-,N/A,,Clear,330,2012-05-08 00:53:00
8:53 PM,57.0,32.0,39,30.08,10.0,NW,4.6,-,N/A,,Clear,320,2012-05-08 01:53:00
9:53 PM,53.1,34.0,48,30.09,10.0,North,3.5,-,N/A,,Clear,350,2012-05-08 02:53:00
10:53 PM,50.0,36.0,59,30.10,10.0,Calm,Calm,-,N/A,,Clear,0,2012-05-08 03:53:00
11:53 PM,46.9,37.0,68,30.10,10.0,WSW,3.5,-,N/A,,Clear,240,2012-05-08 04:53:00